FW9066 Weather Reports


time (UTC)temp
C
wind
direction
speed
KPH
gust
KPH
rain 1hr
cm
rain 24hr
cm
rain mn
cm
humidity
%
barometer
mb
20260906093000 20 107 0.0 0.0 0.00 0.00 0.00 98 1017.8
20260906091500 20 107 0.0 0.0 0.00 0.00 0.00 98 1017.6
20260906090005 20 107 0.0 0.0 0.00 0.00 0.00 97 1017.7
20260906084500 20 107 0.0 0.0 0.00 0.00 0.00 97 1017.7
20260906083000 20 107 0.0 0.0 0.00 0.00 0.00 98 1017.7
20260906080003 20 107 0.0 0.0 0.00 0.00 0.00 98 1017.9
20260906073000 20 105 0.0 0.0 0.00 0.00 0.00 97 1017.4
20260906071500 20 105 0.0 0.0 0.00 0.00 0.00 97 1017.4
20260906070002 20 105 0.0 0.0 0.00 0.00 0.00 97 1017.5
20260906064500 20 105 0.0 0.0 0.00 0.00 0.00 97 1017.7
20260906063000 20 105 0.0 0.0 0.00 0.00 0.00 97 1017.8
20260906061500 20 105 0.0 0.0 0.00 0.00 0.00 97 1017.7
20260906060002 20 105 0.0 0.0 0.00 0.00 0.00 97 1017.8
20260906052959 20 103 0.0 0.0 0.00 0.00 0.00 97 1018.5
20260906051500 20 103 0.0 0.0 0.00 0.00 0.00 97 1018.7
20260906050004 20 103 0.0 0.0 0.00 0.00 0.00 97 1018.8
20260906044503 20 103 0.0 0.0 0.00 0.00 0.00 97 1019.0
20260906043003 20 103 0.0 0.0 0.00 0.00 0.00 97 1018.8
20260906041503 20 103 0.0 0.0 0.00 0.00 0.00 97 1018.7
20260906040006 20 102 0.0 0.0 0.00 0.00 0.00 96 1018.8
20260906033004 21 103 0.0 0.0 0.00 0.00 0.00 96 1018.6
20260906031502 21 103 0.0 0.0 0.00 0.00 0.00 96 1018.7
20260906030006 21 103 0.0 0.0 0.00 0.00 0.00 96 1018.6
20260906024503 21 89 0.0 0.0 0.00 0.00 0.00 95 1018.3
20260906023004 21 333 0.0 0.0 0.00 0.00 0.00 96 1018.7
20260906020005 21 278 0.0 0.0 0.00 0.00 0.00 95 1018.4
20260906014504 21 277 0.0 0.0 0.00 0.00 0.00 95 1018.2
20260906013004 21 277 0.0 0.0 0.00 0.00 0.00 94 1018.0
20260906011504 22 277 0.0 0.0 0.00 0.00 0.00 93 1018.0
20260906010005 22 279 0.0 0.0 0.00 0.00 0.00 93 1017.8
20260906003003 22 279 0.0 0.0 0.00 0.00 0.00 92 1017.8
20260906001504 23 279 0.0 0.0 0.00 0.00 0.00 91 1017.6
20260906000005 23 279 0.0 0.0 0.00 0.00 0.00 90 1017.5
20260905234503 25 279 0.0 0.0 0.00 0.00 0.00 87 1017.5
20260905233005 26 280 0.0 0.0 0.00 0.00 0.00 83 1017.4
20260905231503 27 280 0.0 0.0 0.00 0.00 0.00 80 1017.2
20260905230008 26 280 0.0 0.0 0.00 0.00 0.00 83 1017.1
20260905224504 25 297 0.0 0.0 0.00 0.00 0.00 87 1017.2
20260905223004 25 356 0.0 1.6 0.00 0.00 0.00 88 1017.3
20260905220006 26 357 0.0 1.6 0.00 0.00 0.00 84 1017.3
20260905214501 26 357 0.0 1.6 0.00 0.00 0.00 84 1017.4
20260905213003 26 70 0.0 1.6 0.00 0.00 0.00 84 1017.5
20260905211502 26 328 1.6 8.0 0.00 0.00 0.00 81 1017.7
20260905210004 25 322 0.0 3.2 0.00 0.00 0.00 84 1018.0
20260905204502 25 122 1.6 1.6 0.00 0.00 0.00 86 1018.0
20260905203003 25 122 1.6 1.6 0.00 0.00 0.00 86 1018.0
20260905201501 25 129 1.6 3.2 0.00 0.00 0.00 87 1018.2
20260905194502 25 146 1.6 3.2 0.00 0.00 0.00 83 1017.9
20260905193002 26 124 1.6 3.2 0.00 0.00 0.00 81 1017.8
20260905191502 27 122 1.6 3.2 0.00 0.00 0.00 78 1017.8
20260905190004 30 140 1.6 3.2 0.00 0.00 0.00 70 1018.0
20260905184513 30 287 1.6 4.8 0.00 0.00 0.00 65 1018.0
20260905183004 30 209 3.2 8.0 0.00 0.00 0.00 67 1018.0
20260905181501 31 190 1.6 11.3 0.00 0.00 0.00 66 1018.0
20260905180004 31 244 1.6 8.0 0.00 0.00 0.00 67 1018.5
20260905174501 31 141 3.2 8.0 0.00 0.00 0.00 67 1018.8
20260905173001 31 4 3.2 8.0 0.00 0.00 0.00 70 1018.8
20260905171502 30 179 1.6 4.8 0.00 0.00 0.00 72 1019.1
20260905170004 30 143 0.0 3.2 0.00 0.00 0.00 73 1019.1
20260905164501 30 147 1.6 3.2 0.00 0.00 0.00 74 1019.2
20260905161501 28 356 1.6 6.4 0.00 0.00 0.00 79 1019.8
20260905160003 28 15 1.6 6.4 0.00 0.00 0.00 79 1019.7
20260905154502 27 152 0.0 3.2 0.00 0.00 0.00 80 1019.6
20260905153002 27 147 0.0 3.2 0.00 0.00 0.00 82 1019.8
20260905150004 25 150 1.6 1.6 0.00 0.00 0.00 85 1020.1
20260905144502 25 53 0.0 1.6 0.00 0.00 0.00 86 1020.2
20260905143002 23 347 1.6 6.4 0.00 0.00 0.00 88 1020.3
20260905141502 23 124 0.0 0.0 0.00 0.00 0.00 91 1020.3
20260905140004 22 122 0.0 0.0 0.00 0.00 0.00 93 1020.3
20260905134500 21 122 0.0 0.0 0.00 0.00 0.00 96 1020.7
20260905133001 20 122 0.0 0.0 0.00 0.00 0.00 97 1021.0
20260905131501 20 122 0.0 0.0 0.00 0.00 0.00 98 1020.9
20260905130004 20 122 0.0 0.0 0.00 0.00 0.00 98 1021.1
20260905124501 19 122 0.0 0.0 0.00 0.00 0.00 98 1021.0
20260905123001 19 122 0.0 0.0 0.00 0.00 0.00 98 1020.7
20260905121500 18 122 0.0 0.0 0.00 0.00 0.00 98 1020.7
20260905120004 18 122 0.0 0.0 0.00 0.00 0.00 97 1020.6
20260905114501 18 122 0.0 0.0 0.00 0.00 0.00 97 1020.4
20260905113000 18 122 0.0 0.0 0.00 0.00 0.00 97 1020.3
20260905111501 19 122 0.0 0.0 0.00 0.00 0.00 97 1020.0
20260905110003 19 210 0.0 0.0 0.00 0.00 0.00 97 1019.7
20260905104501 18 211 0.0 0.0 0.00 0.00 0.00 97 1019.8
20260905103001 19 211 0.0 0.0 0.00 0.00 0.00 97 1019.5
20260905101500 19 211 0.0 0.0 0.00 0.00 0.00 97 1019.5
20260905100003 18 211 0.0 0.0 0.00 0.00 0.00 97 1019.7